| time (UTC) | temp F | wind direction | speed MPH | gust MPH | rain 1hr in | rain 24hr in | rain mn in | humidity % | barometer mb |
| 20260508032629 | 66 | 96 | 3.0 | 10.0 | 0.00 | 0.00 | 0.00 | 36 | 1016.5 |
| 20260508031749 | 67 | 278 | 3.0 | 8.0 | 0.00 | 0.00 | 0.00 | 37 | 1016.4 |
| 20260508030630 | 68 | 241 | 5.0 | 12.0 | 0.00 | 0.00 | 0.00 | 37 | 1016.3 |
| 20260508025629 | 69 | 228 | 4.0 | 9.0 | 0.00 | 0.00 | 0.00 | 37 | 1016.2 |
| 20260508024648 | 70 | 184 | 5.0 | 9.0 | 0.00 | 0.00 | 0.00 | 37 | 1016.0 |
| 20260508023629 | 70 | 239 | 5.0 | 9.0 | 0.00 | 0.00 | 0.00 | 37 | 1016.1 |
| 20260508022629 | 71 | 271 | 4.0 | 9.0 | 0.00 | 0.00 | 0.00 | 38 | 1016.0 |
| 20260508021629 | 71 | 164 | 4.0 | 7.0 | 0.00 | 0.00 | 0.00 | 37 | 1015.9 |
| 20260508020628 | 72 | 188 | 4.0 | 9.0 | 0.00 | 0.00 | 0.00 | 36 | 1015.9 |
| 20260508015629 | 73 | 244 | 3.0 | 9.0 | 0.00 | 0.00 | 0.00 | 39 | 1015.9 |
| 20260508014629 | 73 | 220 | 6.0 | 11.0 | 0.00 | 0.00 | 0.00 | 36 | 1015.8 |
| 20260508013628 | 74 | 203 | 3.0 | 8.0 | 0.00 | 0.00 | 0.00 | 37 | 1015.9 |
| 20260508012629 | 76 | 184 | 3.0 | 8.0 | 0.00 | 0.00 | 0.00 | 34 | 1015.8 |
| 20260508011649 | 75 | 352 | 4.0 | 12.0 | 0.00 | 0.00 | 0.00 | 35 | 1015.8 |
| 20260508010628 | 76 | 176 | 5.0 | 12.0 | 0.00 | 0.00 | 0.00 | 32 | 1016.0 |
| 20260508005629 | 77 | 154 | 5.0 | 11.0 | 0.00 | 0.00 | 0.00 | 32 | 1015.9 |
| 20260508004629 | 77 | 176 | 4.0 | 9.0 | 0.00 | 0.00 | 0.00 | 32 | 1015.9 |
| 20260508003628 | 76 | 204 | 5.0 | 10.0 | 0.00 | 0.00 | 0.00 | 32 | 1015.8 |
| 20260508002631 | 77 | 206 | 5.0 | 12.0 | 0.00 | 0.00 | 0.00 | 31 | 1015.8 |
| 20260508001628 | 76 | 253 | 7.0 | 13.0 | 0.00 | 0.00 | 0.00 | 32 | 1015.8 |
| 20260508000629 | 77 | 151 | 8.0 | 14.0 | 0.00 | 0.00 | 0.00 | 32 | 1015.6 |
| 20260507235628 | 77 | 203 | 6.0 | 13.0 | 0.00 | 0.00 | 0.00 | 32 | 1015.6 |
| 20260507234649 | 78 | 275 | 4.0 | 12.0 | 0.00 | 0.00 | 0.00 | 33 | 1015.6 |
| 20260507233629 | 78 | 210 | 5.0 | 11.0 | 0.00 | 0.00 | 0.00 | 33 | 1015.6 |
| 20260507232629 | 78 | 268 | 7.0 | 13.0 | 0.00 | 0.00 | 0.00 | 31 | 1015.6 |
| 20260507231629 | 79 | 268 | 5.0 | 11.0 | 0.00 | 0.00 | 0.00 | 32 | 1015.6 |
| 20260507230649 | 80 | 239 | 4.0 | 9.0 | 0.00 | 0.00 | 0.00 | 32 | 1015.7 |
| 20260507225629 | 79 | 323 | 5.0 | 9.0 | 0.00 | 0.00 | 0.00 | 33 | 1015.8 |
| 20260507224649 | 79 | 216 | 6.0 | 13.0 | 0.00 | 0.00 | 0.00 | 33 | 1015.9 |
| 20260507223649 | 79 | 156 | 6.0 | 13.0 | 0.00 | 0.00 | 0.00 | 31 | 1016.0 |
| 20260507222709 | 78 | 184 | 6.0 | 14.0 | 0.00 | 0.00 | 0.00 | 34 | 1016.0 |
| 20260507221649 | 79 | 241 | 5.0 | 11.0 | 0.00 | 0.00 | 0.00 | 32 | 1016.1 |
| 20260507220649 | 79 | 250 | 5.0 | 11.0 | 0.00 | 0.00 | 0.00 | 33 | 1016.2 |
| 20260507215629 | 78 | 196 | 7.0 | 10.0 | 0.00 | 0.00 | 0.00 | 33 | 1016.3 |
| 20260507214649 | 79 | 18 | 6.0 | 14.0 | 0.00 | 0.00 | 0.00 | 33 | 1016.4 |
| 20260507213629 | 79 | 245 | 5.0 | 10.0 | 0.00 | 0.00 | 0.00 | 33 | 1016.4 |
| 20260507212629 | 79 | 292 | 3.0 | 10.0 | 0.00 | 0.00 | 0.00 | 33 | 1016.4 |
| 20260507211629 | 79 | 246 | 4.0 | 9.0 | 0.00 | 0.00 | 0.00 | 34 | 1016.4 |
| 20260507210629 | 77 | 238 | 3.0 | 7.0 | 0.00 | 0.00 | 0.00 | 33 | 1016.5 |
| 20260507205629 | 78 | 250 | 5.0 | 13.0 | 0.00 | 0.00 | 0.00 | 33 | 1016.6 |
| 20260507204629 | 77 | 227 | 4.0 | 9.0 | 0.00 | 0.00 | 0.00 | 31 | 1016.8 |
| 20260507203629 | 77 | 117 | 4.0 | 11.0 | 0.00 | 0.00 | 0.00 | 30 | 1016.9 |
| 20260507202630 | 77 | 226 | 5.0 | 10.0 | 0.00 | 0.00 | 0.00 | 32 | 1017.0 |
| 20260507201629 | 75 | 248 | 5.0 | 12.0 | 0.00 | 0.00 | 0.00 | 33 | 1017.0 |
| 20260507200629 | 74 | 134 | 1.0 | 6.0 | 0.00 | 0.00 | 0.00 | 35 | 1017.2 |
| 20260507195629 | 75 | 33 | 4.0 | 8.0 | 0.00 | 0.00 | 0.00 | 36 | 1017.4 |
| 20260507194649 | 72 | 153 | 6.0 | 10.0 | 0.00 | 0.00 | 0.00 | 38 | 1017.5 |
| 20260507193629 | 73 | 170 | 4.0 | 10.0 | 0.00 | 0.00 | 0.00 | 40 | 1017.6 |
| 20260507192629 | 72 | 10 | 3.0 | 9.0 | 0.00 | 0.00 | 0.00 | 43 | 1017.8 |
| 20260507191629 | 73 | 108 | 2.0 | 7.0 | 0.00 | 0.00 | 0.00 | 43 | 1017.9 |
| 20260507190629 | 70 | 4 | 3.0 | 6.0 | 0.00 | 0.00 | 0.00 | 43 | 1018.0 |
| 20260507185629 | 70 | 64 | 2.0 | 6.0 | 0.00 | 0.00 | 0.00 | 45 | 1018.1 |
| 20260507184629 | 70 | 188 | 2.0 | 4.0 | 0.00 | 0.00 | 0.00 | 47 | 1018.2 |
| 20260507183629 | 70 | 151 | 3.0 | 6.0 | 0.00 | 0.00 | 0.00 | 47 | 1018.3 |
| 20260507182630 | 68 | 5 | 2.0 | 5.0 | 0.00 | 0.00 | 0.00 | 48 | 1018.4 |
| 20260507181629 | 68 | 55 | 3.0 | 7.0 | 0.00 | 0.00 | 0.00 | 49 | 1018.5 |
| 20260507180629 | 68 | 27 | 3.0 | 8.0 | 0.00 | 0.00 | 0.00 | 49 | 1018.6 |
| 20260507175629 | 68 | 22 | 0.0 | 2.0 | 0.00 | 0.00 | 0.00 | 50 | 1018.7 |
| 20260507174629 | 67 | 101 | 2.0 | 6.0 | 0.00 | 0.00 | 0.00 | 51 | 1018.9 |
| 20260507173629 | 66 | 151 | 2.0 | 6.0 | 0.00 | 0.00 | 0.00 | 53 | 1019.0 |
| 20260507172630 | 66 | 171 | 1.0 | 5.0 | 0.00 | 0.00 | 0.00 | 54 | 1019.0 |
| 20260507171630 | 66 | 146 | 3.0 | 6.0 | 0.00 | 0.00 | 0.00 | 54 | 1019.0 |
| 20260507170630 | 66 | 163 | 2.0 | 5.0 | 0.00 | 0.00 | 0.00 | 57 | 1019.0 |
| 20260507165652 | 63 | 168 | 3.0 | 7.0 | 0.00 | 0.00 | 0.00 | 60 | 1019.1 |
| 20260507164649 | 64 | 0.0 | 2.0 | 0.00 | 0.00 | 0.00 | 59 | 1019.1 | |
| 20260507163630 | 62 | 136 | 2.0 | 5.0 | 0.00 | 0.00 | 0.00 | 62 | 1019.1 |
| 20260507162629 | 61 | 197 | 2.0 | 6.0 | 0.00 | 0.00 | 0.00 | 64 | 1019.1 |
| 20260507161630 | 60 | 187 | 2.0 | 4.0 | 0.00 | 0.00 | 0.00 | 66 | 1019.2 |
| 20260507160629 | 60 | 150 | 3.0 | 5.0 | 0.00 | 0.00 | 0.00 | 67 | 1019.3 |
| 20260507155629 | 59 | 181 | 1.0 | 3.0 | 0.00 | 0.00 | 0.00 | 69 | 1019.4 |
| 20260507154630 | 58 | 303 | 1.0 | 2.0 | 0.00 | 0.00 | 0.00 | 70 | 1019.4 |
| 20260507153630 | 57 | 192 | 0.0 | 3.0 | 0.00 | 0.00 | 0.00 | 71 | 1019.5 |
| 20260507152629 | 57 | 207 | 2.0 | 4.0 | 0.00 | 0.00 | 0.00 | 73 | 1019.5 |
| 20260507151629 | 56 | 161 | 1.0 | 4.0 | 0.00 | 0.00 | 0.00 | 73 | 1019.6 |
| 20260507150630 | 55 | 118 | 1.0 | 4.0 | 0.00 | 0.00 | 0.00 | 76 | 1019.6 |
| 20260507145630 | 54 | 0.0 | 1.0 | 0.00 | 0.00 | 0.00 | 79 | 1019.6 | |
| 20260507144630 | 54 | 196 | 2.0 | 3.0 | 0.00 | 0.00 | 0.00 | 80 | 1019.6 |
| 20260507143650 | 53 | 148 | 1.0 | 3.0 | 0.00 | 0.00 | 0.00 | 82 | 1019.6 |
| 20260507142630 | 52 | 229 | 1.0 | 4.0 | 0.00 | 0.00 | 0.00 | 82 | 1019.5 |
| 20260507141629 | 51 | 173 | 0.0 | 2.0 | 0.00 | 0.00 | 0.00 | 85 | 1019.5 |
| 20260507140630 | 50 | 152 | 2.0 | 6.0 | 0.00 | 0.00 | 0.00 | 86 | 1019.4 |
| 20260507135629 | 48 | 0.0 | 0.0 | 0.00 | 0.00 | 0.00 | 87 | 1019.4 | |
| 20260507134630 | 47 | 177 | 1.0 | 2.0 | 0.00 | 0.00 | 0.00 | 89 | 1019.3 |
| 20260507133630 | 46 | 181 | 0.0 | 2.0 | 0.00 | 0.00 | 0.00 | 88 | 1019.2 |
| 20260507132631 | 48 | 117 | 0.0 | 3.0 | 0.00 | 0.00 | 0.00 | 85 | 1019.2 |
| 20260507131630 | 45 | 266 | 1.0 | 3.0 | 0.00 | 0.00 | 0.00 | 92 | 1019.0 |
| 20260507130630 | 44 | 211 | 1.0 | 3.0 | 0.00 | 0.00 | 0.00 | 93 | 1019.2 |
| 20260507125629 | 44 | 0.0 | 0.0 | 0.00 | 0.00 | 0.00 | 91 | 1019.1 | |
| 20260507124630 | 44 | 148 | 0.0 | 2.0 | 0.00 | 0.00 | 0.00 | 94 | 1019.0 |
| 20260507123629 | 44 | 0.0 | 0.0 | 0.00 | 0.00 | 0.00 | 93 | 1018.9 | |
| 20260507122630 | 45 | 0.0 | 1.0 | 0.00 | 0.00 | 0.00 | 92 | 1018.8 | |
| 20260507121630 | 45 | 0.0 | 0.0 | 0.00 | 0.00 | 0.00 | 92 | 1018.8 | |
| 20260507120630 | 45 | 0.0 | 0.0 | 0.00 | 0.00 | 0.00 | 92 | 1018.9 | |
| 20260507115650 | 45 | 0.0 | 0.0 | 0.00 | 0.00 | 0.00 | 91 | 1018.9 | |
| 20260507114630 | 46 | 0.0 | 0.0 | 0.00 | 0.00 | 0.00 | 90 | 1018.9 | |
| 20260507113650 | 46 | 272 | 0.0 | 2.0 | 0.00 | 0.00 | 0.00 | 90 | 1018.9 |
| 20260507112630 | 47 | 0.0 | 0.0 | 0.00 | 0.00 | 0.00 | 89 | 1019.0 | |
| 20260507111650 | 48 | 18 | 0.0 | 2.0 | 0.00 | 0.00 | 0.00 | 85 | 1018.9 |
| 20260507110650 | 49 | 0.0 | 0.0 | 0.00 | 0.00 | 0.00 | 84 | 1018.9 | |
| 20260507105630 | 50 | 0.0 | 0.0 | 0.00 | 0.00 | 0.00 | 82 | 1018.9 | |
| 20260507104630 | 51 | 0.0 | 1.0 | 0.00 | 0.00 | 0.00 | 80 | 1018.9 | |
| 20260507103630 | 51 | 82 | 0.0 | 2.0 | 0.00 | 0.00 | 0.00 | 81 | 1018.9 |
| 20260507102630 | 49 | 183 | 1.0 | 5.0 | 0.00 | 0.00 | 0.00 | 84 | 1019.0 |
| 20260507101630 | 50 | 202 | 1.0 | 3.0 | 0.00 | 0.00 | 0.00 | 84 | 1019.0 |
| 20260507100630 | 51 | 0.0 | 0.0 | 0.00 | 0.00 | 0.00 | 81 | 1019.0 | |
| 20260507095652 | 52 | 0.0 | 1.0 | 0.00 | 0.00 | 0.00 | 79 | 1019.0 | |
| 20260507094630 | 52 | 0.0 | 1.0 | 0.00 | 0.00 | 0.00 | 81 | 1019.1 | |
| 20260507093630 | 52 | 184 | 1.0 | 3.0 | 0.00 | 0.00 | 0.00 | 81 | 1018.9 |
| 20260507092650 | 51 | 0.0 | 1.0 | 0.00 | 0.00 | 0.00 | 84 | 1019.0 | |
| 20260507091630 | 53 | 198 | 0.0 | 2.0 | 0.00 | 0.00 | 0.00 | 81 | 1019.0 |
| 20260507090730 | 53 | 0.0 | 0.0 | 0.00 | 0.00 | 0.00 | 81 | 1019.0 | |
| 20260507085650 | 53 | 0.0 | 0.0 | 0.00 | 0.00 | 0.00 | 79 | 1019.2 | |
| 20260507084631 | 53 | 0.0 | 0.0 | 0.00 | 0.00 | 0.00 | 79 | 1019.2 | |
| 20260507083630 | 55 | 0.0 | 0.0 | 0.00 | 0.00 | 0.00 | 75 | 1019.2 | |
| 20260507082630 | 57 | 0.0 | 0.0 | 0.00 | 0.00 | 0.00 | 73 | 1019.1 | |
| 20260507081630 | 58 | 154 | 2.0 | 6.0 | 0.00 | 0.00 | 0.00 | 71 | 1019.1 |
| 20260507080630 | 59 | 290 | 1.0 | 3.0 | 0.00 | 0.00 | 0.00 | 72 | 1019.1 |
| 20260507075631 | 58 | 31 | 0.0 | 2.0 | 0.00 | 0.00 | 0.00 | 73 | 1019.2 |
| 20260507074630 | 57 | 188 | 2.0 | 5.0 | 0.00 | 0.00 | 0.00 | 72 | 1019.3 |
| 20260507073630 | 57 | 196 | 0.0 | 2.0 | 0.00 | 0.00 | 0.00 | 71 | 1019.4 |
| 20260507072650 | 59 | 263 | 0.0 | 3.0 | 0.00 | 0.00 | 0.00 | 68 | 1019.3 |
| 20260507071630 | 60 | 150 | 2.0 | 5.0 | 0.00 | 0.00 | 0.00 | 65 | 1019.3 |
| 20260507070630 | 60 | 0.0 | 1.0 | 0.00 | 0.00 | 0.00 | 66 | 1019.4 | |
| 20260507065630 | 60 | 142 | 1.0 | 4.0 | 0.00 | 0.00 | 0.00 | 66 | 1019.5 |
| 20260507064650 | 60 | 0.0 | 1.0 | 0.00 | 0.00 | 0.00 | 66 | 1019.5 | |
| 20260507063630 | 60 | 273 | 0.0 | 2.0 | 0.00 | 0.00 | 0.00 | 66 | 1019.6 |
| 20260507062630 | 62 | 212 | 1.0 | 5.0 | 0.00 | 0.00 | 0.00 | 63 | 1019.5 |
| 20260507061631 | 61 | 194 | 2.0 | 5.0 | 0.00 | 0.00 | 0.00 | 63 | 1019.5 |
| 20260507060630 | 61 | 145 | 0.0 | 2.0 | 0.00 | 0.00 | 0.00 | 62 | 1019.6 |
| 20260507055630 | 62 | 186 | 3.0 | 6.0 | 0.00 | 0.00 | 0.00 | 61 | 1019.6 |
| 20260507054630 | 62 | 203 | 1.0 | 4.0 | 0.00 | 0.00 | 0.00 | 59 | 1019.7 |
| 20260507053630 | 63 | 196 | 1.0 | 4.0 | 0.00 | 0.00 | 0.00 | 59 | 1019.6 |
| 20260507052630 | 63 | 164 | 0.0 | 2.0 | 0.00 | 0.00 | 0.00 | 58 | 1019.7 |
| 20260507051630 | 61 | 192 | 2.0 | 6.0 | 0.00 | 0.00 | 0.00 | 62 | 1019.7 |
| 20260507050631 | 62 | 198 | 2.0 | 5.0 | 0.00 | 0.00 | 0.00 | 60 | 1019.7 |
| 20260507045630 | 62 | 168 | 1.0 | 2.0 | 0.00 | 0.00 | 0.00 | 58 | 1019.7 |
| 20260507044630 | 62 | 0.0 | 2.0 | 0.00 | 0.00 | 0.00 | 59 | 1019.7 | |
| 20260507043630 | 64 | 331 | 0.0 | 3.0 | 0.00 | 0.00 | 0.00 | 55 | 1019.7 |
| 20260507042651 | 64 | 323 | 0.0 | 3.0 | 0.00 | 0.00 | 0.00 | 55 | 1019.6 |
| 20260507041651 | 65 | 190 | 0.0 | 2.0 | 0.00 | 0.00 | 0.00 | 54 | 1019.6 |
| 20260507040631 | 65 | 194 | 2.0 | 5.0 | 0.00 | 0.00 | 0.00 | 54 | 1019.4 |
| 20260507035631 | 66 | 189 | 1.0 | 4.0 | 0.00 | 0.00 | 0.00 | 54 | 1019.3 |
| 20260507034630 | 67 | 209 | 0.0 | 2.0 | 0.00 | 0.00 | 0.00 | 54 | 1019.1 |
| 20260507033631 | 68 | 163 | 1.0 | 3.0 | 0.00 | 0.00 | 0.00 | 51 | 1019.0 |